Ketchikan, AK

11:12 PM AKDT on September 22, 2018 (GMT -0800)
Ketchikan International

Weather History for PAKT - November, 2017

Change the Weather History Date:

Monday, November 13, 2017

  Actual Average Record
Temperature  
Mean Temperature 40 °F -  
Max Temperature 46 °F 45 °F 61 °F (1981)
Min Temperature 35 °F 34 °F 14 °F (1955)
Degree Days  
Heating Degree Days 24    
Moisture  
Dew Point 34 °F    
Average Humidity 81    
Maximum Humidity 93    
Minimum Humidity 53    
Precipitation  
Precipitation 0.02 in - - ()
Sea Level Pressure  
Sea Level Pressure 29.44 in    
Wind  
Wind Speed 4 mph (WNW)    
Max Wind Speed 9 mph    
Max Gust Speed -    
Visibility 10 miles    
Events      
Averages and records for this station are not official NWS values.
T = Trace of Precipitation, MM = Missing Value Source: NWS Daily Summary

Daily Weather History Graph

Daily Weather History Graph

Search for Another Location

Airport or City:

Astronomy

Nov. 13, 2017 Rise Set
Actual Time 7:17 AM AKST 3:44 PM AKST
Civil Twilight 6:36 AM AKST 4:25 PM AKST
Nautical Twilight 5:51 AM AKST 5:10 PM AKST
Astronomical Twilight 5:08 AM AKST 5:53 PM AKST
Moon 1:23 AM AKST (11/13) 2:35 PM AKST (11/13)
Length of Visible Light 9h 49m
Length of Day
8h 27m
Waning Crescent, 20% of the Moon is Illuminated
Nov 13
Waning Crescent
Nov 18
New
Nov 26
First Quarter
Dec 3
Full
Dec 9
Last Quarter

Hourly Weather History & Observations

Time (AKST) Temp. Windchill Dew Point Humidity Pressure Visibility Wind Dir Wind Speed Gust Speed Precip Events Conditions
12:53 AM 39.9 °F 35.8 °F 37.0 °F 89% 29.57 in 10.0 mi South 5.8 mph - 0.02 in   Overcast
1:53 AM 41.0 °F - 36.0 °F 82% 29.55 in 10.0 mi Calm Calm - N/A   Overcast
2:53 AM 41.0 °F 37.1 °F 35.1 °F 79% 29.50 in 10.0 mi Variable 5.8 mph - N/A   Overcast
3:53 AM 42.1 °F 39.2 °F 34.0 °F 73% 29.47 in 10.0 mi Variable 4.6 mph - N/A   Overcast
4:53 AM 39.0 °F 36.8 °F 35.1 °F 86% 29.45 in 10.0 mi SE 3.5 mph - N/A   Overcast
5:53 AM 36.0 °F - 34.0 °F 93% 29.43 in 10.0 mi Calm Calm - N/A   Mostly Cloudy
6:07 AM 36.0 °F 33.3 °F 34.0 °F 93% 29.42 in 10.0 mi West 3.5 mph - N/A   Mostly Cloudy
6:53 AM 35.6 °F 32.8 °F 33.8 °F 93% 29.41 in 10.0 mi WNW 3.5 mph - N/A   Clear
7:53 AM 35.6 °F - 32.0 °F 87% 29.39 in 10.0 mi Calm Calm - N/A   Clear
8:53 AM 37.0 °F - 33.1 °F 86% 29.38 in 10.0 mi Calm Calm - N/A   Mostly Cloudy
9:53 AM 41.0 °F - 33.8 °F 76% 29.38 in 10.0 mi Calm Calm - N/A   Clear
10:53 AM 44.6 °F 40.7 °F 33.8 °F 66% 29.38 in 10.0 mi NNW 6.9 mph - N/A   Scattered Clouds
11:53 AM 46.4 °F 41.9 °F 30.2 °F 53% 29.37 in 10.0 mi NNW 9.2 mph - N/A   Clear
12:53 PM 46.4 °F 41.9 °F 32.0 °F 57% 29.36 in 10.0 mi NW 9.2 mph - N/A   Clear
1:53 PM 45.0 °F 41.8 °F 32.0 °F 60% 29.37 in 10.0 mi NW 5.8 mph - N/A   Clear
2:53 PM 41.0 °F 37.1 °F 33.1 °F 73% 29.37 in 10.0 mi NNW 5.8 mph - N/A   Clear
3:53 PM 39.2 °F 34.2 °F 33.8 °F 81% 29.39 in 10.0 mi NNW 6.9 mph - N/A   Clear
4:53 PM 39.0 °F 36.8 °F 34.0 °F 82% 29.40 in 10.0 mi NW 3.5 mph - N/A   Clear
5:53 PM 36.0 °F 33.3 °F 33.1 °F 89% 29.42 in 10.0 mi West 3.5 mph - N/A   Mostly Cloudy
6:53 PM 37.0 °F - 33.1 °F 86% 29.44 in 10.0 mi Calm Calm - N/A   Overcast
7:53 PM 37.0 °F - 34.0 °F 89% 29.46 in 10.0 mi Calm Calm - N/A   Overcast
8:53 PM 36.0 °F - 33.1 °F 89% 29.48 in 10.0 mi Calm Calm - N/A   Overcast
9:53 PM 37.0 °F - 34.0 °F 89% 29.49 in 10.0 mi Calm Calm - N/A   Overcast
10:53 PM 37.9 °F 35.5 °F 34.0 °F 86% 29.51 in 10.0 mi West 3.5 mph - N/A   Overcast
11:53 PM 37.0 °F - 34.0 °F 89% 29.52 in 10.0 mi Calm Calm - N/A   Overcast